Vertical_Velocity
-1 1 -0 -0 -1 0 -0 0 1 -0 -0 -1 -1 0 0 -1 -1 -2 -4 -2 -1 -0 -2 -3 -2 -2 -1 -6 -1 -2 -1 -0 -3 -3 -2 -1 -2 -0 1 -2 0 -3 -0 -2 -3 -2 -4
0 -0 -1 -1 -0 -1 1 -0 0 1 0 1 -0 -1 -0 -1 -0 -0 -3 -3 -2 -1 -3 -2 -1 -3 -0 -4 -4 -2 -1 -2 -2 -2 -2 1 0 0 4 -2 -1 -3 0 0 -2 -1 -1
1 1 -0 0 -0 1 1 -0 -0 -1 1 0 -0 -0 -2 -1 0 -0 -1 -2 -2 -1 -3 -3 0 -2 3 -2 -4 -1 -2 -1 -2 -1 -3 -1 -2 -1 -3 -5 -6 -5 -2 -1 -3 1 -6
1 -1 -0 1 0 1 1 -1 0 -0 0 1 -0 -1 -1 -2 0 -1 -1 -0 -1 -2 -3 -3 -1 -2 -0 -3 -3 -3 -3 -2 -2 -3 -3 -4 -3 -2 -0 -6 -2 -1 -1 -2 5 2 -1
-0 -0 0 -0 -1 0 -1 -0 -1 -1 0 -0 -0 -0 -0 -2 -0 0 -1 -1 -1 -1 -3 -4 -1 -3 -4 -2 -0 -4 -3 -3 -1 -1 -3 -1 -1 2 -3 0 -3 0 0 -3 -7 0 3
-1 0 0 0 1 -0 -1 -0 -0 -0 -2 0 -1 -1 1 -1 -1 -0 0 -1 -1 -0 -2 -3 -4 -2 -2 -4 -0 -1 -3 -2 -3 1 -3 -2 -1 1 1 2 4 -1 -2 -0 2 1 2
0 -0 1 0 0 0 1 0 1 -2 1 -0 0 -1 0 -0 -1 -1 -2 -0 -0 -1 -2 0 -1 -3 1 -4 0 -2 -4 1 -1 0 -3 -3 0 4 2 1 0 -1 1 -1 3 -4 -0
-1 -1 -1 0 1 -1 -2 0 -0 -1 -0 0 0 0 -1 0 -0 -1 -1 -1 1 2 -1 -2 -1 -3 -2 -2 -4 -0 -1 -4 -0 -2 -0 -8 -2 2 2 2 -0 -3 -3 -3 -2 1 1
1 0 -0 -1 -1 -1 -0 1 -1 -2 -1 0 -1 0 -1 1 -0 -2 -1 -0 0 -1 -1 -2 -2 -2 -2 -2 -3 0 -2 0 -0 -0 0 3 -1 1 -0 -1 0 -2 -4 3 2 -6 -4
1 1 2 1 -0 -2 -2 -0 -2 -1 -2 -0 -1 -0 -2 -1 2 -1 -1 -0 0 -0 -2 -2 -2 -2 -1 -3 -2 -6 -2 1 -1 -2 -1 0 -1 -4 3 8 9 9 6 4 0 2 6
-1 3 -1 1 4 1 -0 1 1 -3 -2 -0 -1 0 -1 -3 1 -0 0 -2 0 1 0 -1 -3 -3 -2 -2 -2 -1 -4 -1 -3 2 1 3 0 2 -2 1 2 -2 2 2 5 1 3
1 -0 -0 2 2 0 -0 -2 1 2 0 -2 0 -0 2 -2 -2 -0 -1 -0 -1 -0 -1 0 0 -1 -2 -2 -2 -0 -1 -2 0 -2 -1 2 1 -3 -1 -0 -5 -3 -4 1 -1 3 3
2 -1 -2 -2 1 0 1 1 -1 -2 -2 0 1 3 -2 1 -1 -1 -2 0 -3 -0 -0 -1 -1 -0 -0 -0 -1 -3 1 0 -2 -2 0 0 -0 -2 -3 -0 -3 -3 -0 -1 0 -0 3
2 -0 -1 -0 0 -1 1 -2 -1 -2 -2 -0 -1 -2 1 -0 1 -4 2 -3 -1 -0 -1 -0 -2 -1 -2 -1 -0 -1 -3 -0 -1 -1 -1 -2 -4 -2 -1 6 3 -1 -1 -1 1 1 1
2 4 -0 -0 -0 2 -1 3 2 -0 -2 -1 0 -2 0 1 2 -1 -0 2 -3 0 0 -2 -2 -2 -1 -1 -1 -0 -0 -2 1 -0 1 -0 -3 -1 -1 2 -2 -2 2 3 0 -2 2
-1 -1 3 0 2 -1 0 2 0 -0 3 -2 -3 -1 -1 -2 1 1 -2 2 -0 2 -1 -1 -1 -2 -2 -2 -2 -0 1 -0 -3 -0 -0 -1 -5 -1 -2 0 -0 0 -0 -2 -0 1 -1
-0 -1 -1 -1 -0 1 -1 -2 -1 2 -2 1 -2 -3 -0 -0 1 3 -2 -2 -2 -2 3 -2 -2 -1 -1 -1 -1 -1 -2 -1 3 -1 0 1 1 -1 2 -0 -2 -2 0 0 -1 -0 2
-1 -0 -3 -1 3 -0 1 -2 1 0 0 0 -1 0 -1 2 -3 -0 1 0 -1 1 -3 1 -1 2 2 -0 -2 -0 -1 -1 -1 0 -1 -0 1 -3 1 -1 1 1 -1 -0 2 1 -0
-1 1 3 -0 -3 0 1 1 2 -1 2 2 -4 -3 4 3 -6 0 1 -0 -0 -2 0 -4 -0 -1 0 3 -1 -1 -2 0 -1 -1 -1 0 0 -4 2 -0 -1 -1 -1 2 1 0 -2
-1 -1 2 3 2 -2 -0 -0 -2 -1 6 4 1 -4 -5 1 -2 -1 3 -3 1 3 -2 -1 -1 1 -1 -2 4 -1 0 -2 -0 -0 0 0 -1 -0 -2 5 6 2 -0 -1 2 -0 1
-1 0 -1 1 4 -0 1 -1 4 -2 5 2 3 -9 -4 -7 -1 -1 0 -2 1 -2 1 1 -6 -0 1 -1 -2 -2 1 1 2 -1 1 -1 -2 -1 1 0 1 1 5 1 -2 2 -4
0 -0 -0 -0 2 1 3 2 1 3 4 -3 1 4 -2 -3 3 2 1 -7 0 8 -1 -1 0 -4 -2 -2 2 1 2 4 5 -1 1 2 -4 -1 -12 -0 1 -3 3 3 1 1 -5
-1 1 1 0 -1 1 3 3 6 3 4 -2 10 2 5 -2 -3 2 -6 1 2 1 3 0 1 1 -1 -3 -0 -3 2 0 -1 1 3 3 1 1 -7 0 -1 -2 0 2 2 2 1
-3 -1 0 0 -0 0 1 5 4 3 8 3 7 9 4 -16 -8 -3 1 2 -1 5 -0 0 2 -1 -1 1 -2 -3 -0 1 0 1 4 2 5 4 -7 -0 2 0 -1 -0 -0 2 3
-6 -3 -5 1 -0 0 -1 -0 3 4 4 -2 14 -1 1 -12 -4 1 -3 -1 6 -0 -8 7 -2 3 4 -1 -4 -5 -8 -3 -3 1 2 5 6 -1 -1 -1 -0 1 2 1 1 1 1
-0 -2 -1 -3 -2 0 -0 -1 4 4 1 6 7 16 3 2 -21 2 1 7 0 2 -0 -6 5 5 2 1 2 -3 -3 -2 -1 1 -3 2 2 0 1 1 1 4 4 5 2 1 1
-4 -4 -0 3 -6 -1 2 -1 -3 2 2 -8 -6 16 12 -8 12 -2 -9 -7 13 9 4 -2 -1 3 5 1 1 -2 -6 -4 -3 0 -1 3 0 -2 1 -1 2 2 2 2 6 1 1
-4 -4 0 1 -5 -4 -1 -0 8 14 7 -6 13 7 2 -5 8 -1 2 -1 0 1 7 -2 7 -2 2 1 1 -3 -2 -1 -1 -2 -3 6 5 -3 2 2 -5 -5 -1 -0 2 1 2
-2 -1 -2 -3 -2 -6 4 3 -6 -6 1 8 -4 15 16 -5 7 1 1 0 -2 2 -2 -3 -4 -4 8 -1 -1 -4 -3 -3 2 -5 -2 -4 -3 -6 -6 -2 -7 -3 -3 -3 -4 -6 -3
Height
3180 3180 3179 3179 3178 3178 3177 3176 3175 3174 3172 3170 3167 3164 3161 3159 3157 3155 3154 3151 3147 3143 3139 3134 3129 3125 3121 3118 3115 3112 3109 3106 3104 3101 3098 3095 3093 3092 3091 3091 3091 3091 3092 3091 3092 3093 3094
3180 3180 3180 3179 3179 3178 3177 3176 3175 3173 3172 3170 3167 3164 3161 3158 3156 3154 3153 3150 3147 3143 3139 3134 3129 3125 3122 3119 3115 3111 3108 3106 3103 3099 3096 3093 3091 3090 3089 3088 3089 3088 3087 3086 3087 3088 3089
3180 3180 3180 3180 3179 3179 3177 3176 3174 3173 3171 3169 3167 3165 3161 3158 3155 3153 3152 3149 3147 3143 3140 3136 3130 3127 3124 3122 3116 3112 3109 3106 3104 3100 3096 3092 3090 3090 3089 3088 3087 3087 3085 3083 3083 3085 3085
3179 3179 3179 3179 3179 3178 3177 3175 3174 3172 3170 3168 3166 3164 3161 3158 3155 3152 3150 3148 3146 3143 3141 3137 3132 3129 3125 3121 3117 3114 3111 3108 3105 3102 3098 3093 3089 3089 3088 3087 3086 3085 3084 3082 3080 3080 3080
3179 3178 3179 3179 3178 3178 3177 3175 3173 3172 3170 3168 3165 3163 3161 3158 3155 3152 3149 3147 3145 3143 3140 3138 3134 3129 3126 3123 3119 3116 3113 3110 3106 3103 3100 3095 3091 3088 3086 3085 3085 3084 3083 3081 3079 3078 3079
3178 3179 3178 3178 3177 3177 3176 3174 3173 3171 3169 3166 3164 3162 3160 3157 3154 3151 3148 3146 3144 3143 3141 3137 3135 3132 3128 3125 3120 3117 3114 3112 3108 3104 3101 3097 3094 3091 3087 3085 3084 3082 3082 3080 3077 3076 3074
3177 3177 3178 3177 3176 3176 3175 3173 3172 3170 3168 3166 3163 3161 3158 3156 3154 3150 3148 3146 3146 3144 3140 3138 3135 3131 3128 3126 3121 3118 3115 3112 3109 3106 3103 3100 3096 3093 3089 3086 3083 3081 3081 3079 3076 3073 3072
3175 3177 3177 3177 3176 3175 3174 3172 3171 3169 3167 3165 3162 3160 3157 3155 3153 3150 3147 3144 3143 3143 3140 3137 3134 3131 3128 3126 3122 3119 3116 3113 3109 3105 3102 3101 3098 3094 3090 3086 3084 3082 3080 3078 3076 3073 3074
3176 3175 3175 3175 3175 3174 3173 3171 3169 3168 3166 3164 3162 3159 3156 3154 3152 3149 3146 3144 3141 3139 3139 3137 3134 3131 3129 3127 3124 3120 3117 3114 3109 3106 3102 3099 3098 3094 3091 3087 3084 3082 3080 3079 3078 3074 3073
3172 3173 3172 3172 3173 3172 3171 3170 3168 3166 3164 3161 3160 3159 3157 3154 3153 3148 3146 3142 3140 3138 3137 3138 3133 3131 3129 3125 3124 3121 3117 3115 3110 3107 3103 3100 3097 3094 3092 3089 3088 3086 3082 3080 3078 3076 3074
3169 3170 3170 3169 3170 3170 3169 3168 3167 3165 3163 3161 3158 3157 3156 3153 3151 3148 3146 3142 3139 3139 3138 3137 3132 3130 3127 3126 3124 3120 3118 3114 3111 3108 3106 3103 3098 3095 3093 3092 3090 3088 3084 3082 3080 3077 3076
3167 3167 3167 3167 3167 3167 3167 3166 3165 3164 3162 3160 3157 3155 3155 3153 3151 3148 3145 3142 3140 3141 3136 3135 3132 3129 3127 3124 3122 3119 3117 3115 3111 3107 3105 3102 3099 3097 3095 3093 3090 3088 3086 3083 3080 3078 3076
3164 3165 3165 3165 3165 3164 3164 3163 3162 3162 3160 3159 3156 3154 3152 3152 3150 3148 3145 3143 3142 3140 3140 3137 3132 3128 3126 3124 3121 3119 3116 3114 3112 3108 3103 3101 3098 3096 3094 3092 3090 3088 3086 3082 3080 3076 3074
3160 3160 3160 3161 3161 3161 3160 3161 3160 3159 3158 3157 3155 3153 3151 3150 3149 3146 3145 3144 3140 3139 3137 3134 3131 3128 3125 3123 3120 3118 3116 3114 3111 3109 3105 3101 3099 3096 3094 3093 3092 3087 3085 3085 3084 3077 3075
3154 3155 3156 3156 3156 3157 3156 3156 3156 3156 3155 3155 3153 3151 3150 3148 3146 3146 3145 3142 3140 3138 3135 3132 3129 3127 3125 3123 3121 3117 3114 3113 3111 3109 3108 3103 3099 3096 3094 3092 3092 3088 3087 3085 3083 3080 3078
3148 3149 3150 3150 3151 3152 3151 3152 3152 3151 3151 3151 3150 3149 3147 3146 3145 3144 3144 3142 3139 3136 3133 3130 3128 3127 3125 3122 3120 3117 3114 3112 3111 3109 3107 3104 3099 3095 3094 3093 3091 3090 3089 3087 3083 3080 3074
3140 3142 3143 3143 3145 3146 3146 3147 3146 3147 3146 3146 3146 3145 3145 3143 3142 3141 3140 3139 3137 3135 3132 3130 3127 3125 3123 3121 3118 3116 3115 3113 3110 3108 3106 3104 3102 3097 3093 3091 3090 3090 3088 3087 3085 3083 3079
3131 3132 3134 3135 3136 3138 3139 3141 3141 3141 3141 3141 3140 3141 3140 3140 3141 3137 3136 3134 3134 3132 3131 3129 3125 3123 3120 3119 3116 3114 3113 3112 3110 3107 3106 3104 3100 3094 3092 3090 3088 3088 3086 3086 3086 3084 3081
3120 3121 3123 3125 3127 3129 3130 3132 3134 3135 3135 3135 3134 3134 3135 3134 3133 3132 3132 3130 3130 3129 3128 3126 3124 3121 3119 3117 3116 3112 3110 3110 3108 3107 3105 3103 3099 3095 3090 3091 3088 3087 3085 3084 3083 3082 3079
3106 3109 3112 3114 3115 3117 3120 3122 3125 3126 3128 3129 3129 3127 3128 3127 3127 3127 3127 3126 3125 3125 3123 3123 3122 3119 3116 3115 3114 3111 3109 3107 3105 3104 3103 3101 3097 3097 3094 3091 3087 3083 3082 3081 3081 3080 3077
3093 3095 3097 3100 3103 3106 3108 3110 3113 3115 3118 3120 3118 3117 3120 3119 3120 3120 3121 3121 3120 3120 3120 3118 3117 3117 3114 3111 3109 3107 3106 3104 3103 3101 3099 3098 3094 3091 3089 3086 3082 3078 3077 3075 3074 3075 3074
3079 3080 3083 3085 3088 3093 3096 3097 3101 3103 3105 3108 3108 3110 3111 3112 3113 3113 3113 3113 3114 3115 3115 3113 3113 3111 3110 3109 3108 3104 3103 3101 3100 3097 3096 3094 3090 3087 3082 3081 3077 3073 3072 3069 3069 3068 3067
3068 3069 3068 3070 3073 3075 3080 3084 3087 3089 3092 3091 3095 3098 3101 3100 3101 3104 3103 3105 3107 3108 3108 3107 3107 3106 3104 3104 3102 3100 3098 3097 3096 3094 3092 3090 3088 3085 3079 3077 3075 3070 3068 3067 3066 3065 3065
3056 3056 3057 3057 3058 3059 3063 3068 3072 3075 3076 3081 3084 3088 3090 3084 3089 3092 3094 3097 3099 3101 3101 3101 3100 3099 3099 3097 3096 3093 3092 3090 3088 3087 3086 3084 3084 3083 3077 3076 3073 3067 3066 3065 3064 3064 3064
3042 3044 3044 3044 3044 3046 3048 3051 3055 3059 3062 3064 3070 3073 3075 3072 3076 3080 3085 3088 3090 3091 3092 3093 3093 3094 3092 3092 3090 3087 3086 3084 3081 3078 3078 3078 3079 3079 3077 3073 3068 3066 3064 3064 3062 3063 3062
3031 3031 3030 3031 3030 3032 3033 3035 3037 3041 3046 3051 3053 3060 3062 3062 3057 3069 3075 3077 3078 3081 3082 3084 3086 3086 3086 3085 3085 3083 3082 3080 3078 3075 3074 3073 3073 3077 3074 3072 3066 3065 3063 3061 3060 3062 3061
3019 3020 3018 3017 3016 3018 3019 3018 3017 3023 3028 3034 3034 3046 3048 3045 3048 3054 3060 3065 3069 3072 3072 3074 3078 3079 3078 3078 3077 3077 3077 3077 3075 3072 3071 3069 3068 3068 3069 3069 3065 3063 3061 3059 3061 3064 3059
3011 3010 3007 3004 3003 3004 3004 3000 3001 3007 3013 3019 3021 3030 3035 3032 3034 3040 3048 3053 3057 3062 3064 3066 3071 3069 3071 3071 3070 3070 3068 3070 3068 3066 3066 3066 3064 3063 3063 3063 3062 3059 3058 3059 3058 3056 3056
3000 2999 2997 2994 2991 2991 2989 2988 2987 2992 2997 3006 3010 3012 3022 3023 3021 3027 3034 3040 3047 3051 3056 3056 3058 3061 3063 3063 3062 3062 3063 3062 3063 3061 3061 3061 3059 3057 3058 3053 3050 3050 3050 3051 3051 3052 3052